Location: Ariel
(45.9570°N, 122.5700°W)
Time: 09:09:24
(UTC-07:00)

Vanguard 3 - Pass Details

Date: 31 August 2019
Orbit: 508 x 3263 km, 33.4° (Epoch: 14 September)

Event Time Altitude Azimuth Distance (km) Brightness Sun altitude
Rises 17:34:56 0° 256° (WSW) 5,942 13.1 22.6°
Reaches altitude 10° 17:39:53 10° 249° (WSW) 4,455 12.9 21.7°
Maximum altitude 17:49:31 34° 191° (S) 2,047 9.6 20.1°
Drops below altitude 10° 17:55:25 10° 127° (SE) 2,694 9.5 19.1°
Sets 17:57:41 0° 118° (ESE) 3,380 9.9 18.7°
